DW5274 Weather Reports


time (UTC)temp
F
wind
direction
speed
knots
gust
knots
rain 1hr
in
rain 24hr
in
rain mn
in
humidity
%
barometer
mb
20260506044527 63 14 0.0 0.0 0.00 0.00 0.00 38 1007.3
20260506043024 64 15 0.0 0.0 0.00 0.00 0.00 38 1007.1
20260506041501 65 15 0.0 0.0 0.00 0.00 0.00 37 1007.0
20260506034543 68 15 0.0 0.0 0.00 0.00 0.00 34 1006.3
20260506033037 69 15 0.0 0.0 0.00 0.00 0.00 32 1006.0
20260506031533 71 15 0.9 0.0 0.00 0.00 0.00 31 1005.7
20260506030029 72 15 3.5 0.0 0.00 0.00 0.00 28 1005.4
20260506024527 73 32 3.5 0.0 0.00 0.00 0.00 28 1005.1
20260506023024 74 345 3.5 0.0 0.00 0.00 0.00 26 1004.9
20260506021520 75 349 4.3 0.0 0.00 0.00 0.00 26 1004.6
20260506020030 76 36 3.5 0.0 0.00 0.00 0.00 25 1004.4
20260506014517 76 360 5.2 0.0 0.00 0.00 0.00 24 1004.3
20260506013059 77 22 5.2 0.0 0.00 0.00 0.00 25 1004.2
20260506011601 77 350 5.2 0.0 0.00 0.00 0.00 24 1004.1
20260506010040 77 36 5.2 0.0 0.00 0.00 0.00 24 1004.1
20260506004543 78 355 5.2 0.0 0.00 0.00 0.00 24 1004.0
20260506003022 78 20 5.2 0.0 0.00 0.00 0.00 24 1004.0
20260506001521 78 355 5.2 0.0 0.00 0.00 0.00 24 1004.0
20260506000003 78 327 6.1 0.0 0.00 0.00 0.00 25 1004.0
20260505234503 78 333 6.1 0.0 0.00 0.00 0.00 23 1004.1
20260505233049 78 350 5.2 0.0 0.00 0.00 0.00 25 1004.2
20260505231551 78 344 6.1 0.0 0.00 0.00 0.00 27 1004.3
20260505230039 78 22 6.1 0.0 0.00 0.00 0.00 24 1004.3
20260505224524 78 325 6.1 0.0 0.00 0.00 0.00 25 1004.3
20260505223003 78 335 4.3 0.0 0.00 0.00 0.00 25 1004.4
20260505221603 77 301 4.3 0.0 0.00 0.00 0.00 27 1004.8
20260505220048 77 334 4.3 0.0 0.00 0.00 0.00 29 1005.1
20260505214545 77 317 4.3 0.0 0.00 0.00 0.00 30 1005.4
20260505213021 76 349 5.2 0.0 0.00 0.00 0.00 30 1005.5
20260505211526 76 299 4.3 0.0 0.00 0.00 0.00 31 1005.7
20260505210055 76 321 4.3 0.0 0.00 0.00 0.00 32 1005.8
20260505204603 75 338 4.3 0.0 0.00 0.00 0.00 31 1006.0
20260505203036 75 290 3.5 0.0 0.00 0.00 0.00 30 1006.1
20260505201539 75 280 3.5 0.0 0.00 0.00 0.00 30 1006.2
20260505200024 75 286 0.0 0.0 0.00 0.00 0.00 31 1006.3
20260505194523 75 264 0.9 0.0 0.00 0.00 0.00 30 1006.5
20260505193022 73 268 1.7 0.0 0.00 0.00 0.00 33 1006.6
20260505191530 73 273 0.9 0.0 0.00 0.00 0.00 32 1006.8
20260505190022 72 242 1.7 0.0 0.00 0.00 0.00 32 1006.9
20260505184528 71 242 0.9 0.0 0.00 0.00 0.00 33 1007.1
20260505183023 71 234 0.0 0.0 0.00 0.00 0.00 35 1007.2
20260505181522 71 234 0.0 0.0 0.00 0.00 0.00 35 1007.4
20260505180008 69 227 2.6 0.0 0.00 0.00 0.00 34 1007.5
20260505174508 69 219 1.7 0.0 0.00 0.00 0.00 35 1007.5
20260505173007 68 232 1.7 0.0 0.00 0.00 0.00 37 1007.5
20260505171513 68 227 4.3 0.0 0.00 0.00 0.00 37 1007.4
20260505170005 67 203 5.2 0.0 0.00 0.00 0.00 36 1007.3
20260505164505 67 183 4.3 0.0 0.00 0.00 0.00 38 1007.2
20260505163009 66 210 3.5 0.0 0.00 0.00 0.00 38 1007.2
20260505161503 65 200 3.5 0.0 0.00 0.00 0.00 38 1007.2
20260505153039 64 194 5.2 0.0 0.00 0.00 0.00 42 1006.8
20260505151530 63 215 5.2 0.0 0.00 0.00 0.00 47 1006.9
20260505124538 52 294 0.0 0.0 0.00 0.00 0.00 66 1004.8
20260505123037 52 292 0.0 0.0 0.00 0.00 0.00 66 1004.6
20260505121525 53 292 0.0 0.0 0.00 0.00 0.00 65 1004.3
20260505120020 53 293 0.0 0.0 0.00 0.00 0.00 62 1004.0
20260505114515 54 293 0.0 0.0 0.00 0.00 0.00 61 1003.7
20260505113014 54 293 0.0 0.0 0.00 0.00 0.00 60 1003.5
20260505111511 55 293 0.0 0.0 0.00 0.00 0.00 59 1003.4
20260505101542 57 293 0.0 0.0 0.00 0.00 0.00 53 1002.5
20260505100022 58 293 0.0 0.0 0.00 0.00 0.00 52 1002.3
20260505094520 58 293 0.0 0.0 0.00 0.00 0.00 51 1002.2
20260505093101 59 293 0.0 0.0 0.00 0.00 0.00 50 1002.1
20260505091600 59 301 0.0 0.0 0.00 0.00 0.00 48 1001.8
20260505090041 59 313 0.0 0.0 0.00 0.00 0.00 49 1001.6
20260505084544 59 315 0.0 0.0 0.00 0.00 0.00 49 1001.5
20260505083021 60 315 0.0 0.0 0.00 0.00 0.00 48 1001.4
20260505081524 60 320 0.0 0.0 0.00 0.00 0.00 49 1001.5
20260505080002 60 321 0.0 0.0 0.00 0.00 0.00 49 1001.4
20260505074502 60 321 0.0 0.0 0.00 0.00 0.00 48 1001.4
20260505073048 61 321 0.0 0.0 0.00 0.00 0.00 48 1001.4
20260505071541 61 321 0.0 0.0 0.00 0.00 0.00 48 1001.4
20260505070021 62 321 0.0 0.0 0.00 0.00 0.00 46 1001.1
20260505064527 62 323 0.0 0.0 0.00 0.00 0.00 45 1000.9
20260505063106 62 324 0.0 0.0 0.00 0.00 0.00 45 1000.9
20260505061601 63 321 0.0 0.0 0.00 0.00 0.00 45 1001.0
20260505060040 63 321 0.0 0.0 0.00 0.00 0.00 44 1000.9